[[{"header":{"parameterUnit":"m.s-1","parameterCategory":1,"la1":30.2991,"la2":30.254,"lo1":-89.0895,"lo2":-89.0444,"dy":0.0017,"dx":0.0017,"nx":28,"ny":28,"refTime":"2025-09-07T21:00:00:Z","depth":0,"parameterNumber":2,"parameterNumberName":"U-component_of_WINDS"},"data":[0,0,0,0,0,0,0,0,0,0,0,0,0,0,0,0,0,0,0,0,0,0,0,0,0,0,0,0,0,0,0,0,0,0,0,0,0,0,0,0,0,0,0,0,0,0,0,0,0,0,0,0,0,0,0,0,0,0,-2.8754,-2.8755,0,-2.8833,-2.8834,-2.8835,-2.8731,-2.8727,-2.8724,-2.872,-2.8804,-2.8809,-2.8815,0,0,0,0,0,0,0,0,0,0,0,0,0,-2.8515,-2.852,-2.8754,-2.8755,-2.8756,-2.8833,-2.8834,-2.8835,-2.8732,-2.8727,-2.8723,-2.8718,-2.8802,-2.8808,-2.8815,0,0,0,0,0,0,0,0,0,0,0,0,0,-2.8609,-2.8521,-2.8754,-2.8714,-2.8711,-2.8833,-2.8834,-2.8836,-2.8733,-2.8727,-2.8721,-2.8716,-2.8799,-2.8808,-2.8816,-2.8983,0,0,-2.8843,-2.8846,0,0,0,0,0,0,0,0,-2.8604,-2.8618,-2.8719,-2.8717,-2.8714,-2.8766,-2.878,-2.8885,-2.8734,-2.8725,-2.872,-2.8713,-2.8796,-2.8805,-2.8832,-2.8986,-2.899,-2.8843,-2.8849,-2.8852,-2.8855,0,0,0,0,0,0,0,-2.8597,-2.8614,-2.8786,-2.872,-2.8717,-2.8692,-2.8699,-2.88,-2.8791,-2.8725,-2.8718,-2.8728,-2.8794,-2.8824,-2.8833,-2.8991,-2.8843,-2.8851,-2.8856,-2.8859,-2.9286,-2.9292,0,0,0,0,0,0,-2.8595,-2.8609,-2.8783,-2.8788,-2.8644,-2.8701,-2.8709,-2.8755,-2.879,-2.8789,-2.8733,-2.8723,-2.8812,-2.8823,-2.8836,-2.9033,-2.8852,-2.886,-2.8865,-2.928,-2.9288,-2.9294,0,0,0,0,0,0,-2.8591,-2.8612,-2.878,-2.8697,-2.8716,-2.8711,-2.8764,-2.876,-2.879,-2.8796,-2.8794,-2.8766,-2.8808,-2.8823,-2.8947,-2.9035,-2.8864,-2.8872,-2.9273,-2.9282,-2.9291,-2.943,0,0,0,0,0,0,-2.8584,-2.8611,-2.8674,-2.8699,-2.8721,-2.889,-2.8769,-2.8766,-2.8805,-2.8793,-2.8826,-2.8826,-2.8805,-2.8934,-2.8955,-2.9044,-2.8879,-2.9265,-2.9277,-2.9288,-2.9418,-2.9443,-2.9465,0,0,0,0,0,-2.8576,-2.871,-2.8678,-2.8699,-2.88,-2.8895,-2.8908,-2.888,-2.8812,-2.8876,-2.8879,-2.8825,-2.9021,-2.8948,-2.897,-2.9063,-2.9259,-2.9274,-2.9287,-2.9407,-2.9438,-2.9464,0,0,0,0,0,0,-2.8697,-2.8713,-2.8677,-2.8823,-2.8859,-2.8877,-2.8957,-2.8914,-2.897,-2.8956,-2.8919,-2.8928,-2.906,-2.9073,-2.8991,-2.9225,-2.9129,-2.9148,-2.9213,-2.9242,-2.9265,-2.926,-2.8886,0,0,0,0,0,-2.8741,-2.8817,-2.8826,-2.8954,-2.8974,-2.8963,-2.9003,-2.8978,-2.9014,-2.9029,-2.9041,-2.9078,-2.9148,-2.9195,-2.926,-2.9418,-2.9424,-2.9492,-2.9516,-2.9535,-2.9553,-2.9638,-2.9669,-2.934,-2.934,-2.9339,0,0,-2.8832,-2.885,-2.89,-2.8979,-2.9004,-2.9084,-2.8976,-2.9065,-2.9124,-2.9042,-2.916,-2.917,-2.9209,-2.935,-2.9413,-2.9366,-2.9644,-2.9553,-2.9568,-2.9576,-2.9656,-2.9687,-2.9715,-2.9349,-2.9348,-2.9346,0,0,-2.904,-2.906,-2.917,-2.9196,-2.9234,-2.9225,-2.9251,-2.9277,-2.928,-2.9397,-2.9337,-2.9407,-2.9528,-2.9558,-2.9589,-2.9807,-2.9759,-2.9828,-2.9953,-3.0036,-3.0062,-3.0085,-3.0164,-3.0193,-2.9846,-2.9846,-2.9846,0,-2.9149,-2.9267,-2.9232,-2.9325,-2.9362,-2.929,-2.9401,-2.9428,-2.9486,-2.9513,-2.9458,-2.9608,-2.9629,-2.9777,-2.983,-2.9857,-2.9887,-2.9826,-3.0061,-3.0084,-3.0104,-3.018,-3.021,-2.9854,-2.9853,-2.9852,-2.9852,0,-2.94,-2.9483,-2.9566,-2.9623,-2.9669,-2.9771,-2.9751,-2.9802,-2.9772,-2.977,-2.9889,-2.9911,-2.998,-3.0012,-2.9985,-3.0157,-3.0126,-3.0066,-2.997,-3.0145,-3.0215,-3.0243,-2.9866,-2.9863,-2.9861,-2.9859,0,0,-2.969,-2.9724,-2.9756,-2.9781,-2.9816,-2.988,-2.9978,-3.0043,-3.0088,-3.0129,-3.0212,-3.0315,-3.026,-3.0295,-3.027,-3.0343,-3.0516,-3.0275,-3.0275,-3.0321,-3.0708,-3.0755,-3.0789,-3.0483,-3.0488,-3.0492,-3.0706,0,-2.9899,-3.0069,-3.004,-3.0205,-3.0281,-3.0212,-3.0297,-3.0329,-3.0328,-3.0393,-3.0392,-3.0466,-3.0387,-3.0408,-3.0477,-3.048,-3.0593,-3.0464,-3.0561,-3.0565,-3.0556,-3.0825,-3.0875,-3.1075,-3.0733,-3.0737,-3.074,0,-3.0167,-3.0218,-3.0391,-3.0414,-3.0445,-3.0522,-3.058,-3.0642,-3.0676,-3.067,-3.0709,-3.067,-3.0768,-3.0667,-3.0803,-3.0715,-3.0752,-3.076,-3.0767,-3.0777,-3.0666,-3.0845,-3.1138,-3.117,-3.0783,-3.078,-3.0776,0,-3.0364,-3.0475,-3.0593,-3.0616,-3.0645,-3.0702,-3.0717,-3.0744,-3.0786,-3.0835,-3.0862,-3.0923,-3.0957,-3.1005,-3.0984,-3.0912,-3.1124,-3.1021,-3.1124,-3.1125,-3.1174,-3.1172,-3.148,-3.1194,-3.1193,-3.1193,-3.1192,0,-3.0603,-3.0712,-3.0682,-3.0755,-3.0875,-3.0839,-3.0959,-3.0965,-3.0991,-3.1064,-3.1007,-3.1077,-3.1043,-3.111,-3.1094,-3.121,-3.1225,-3.1224,-3.1219,-3.1231,-3.1231,-3.1257,-3.1244,-3.1201,-3.1199,-3.1197,-3.1196,0,-3.0845,-3.0829,-3.0953,-3.097,-3.0976,-3.1064,-3.1079,-3.1147,-3.1141,-3.1234,-3.1254,-3.1245,-3.1322,-3.1304,-3.1388,-3.1376,-3.1523,-3.1499,-3.1512,-3.1507,-3.1612,-3.1603,-3.195,-3.1994,-3.1676,-3.1679,-3.1682,0,-3.1,-3.1082,-3.1107,-3.1152,-3.1171,-3.1243,-3.1285,-3.1252,-3.1297,-3.1341,-3.1405,-3.1476,-3.1531,-3.1657,-3.1658,-3.1722,-3.1701,-3.1818,-3.171,-3.172,-3.1706,-3.1702,-3.1711,-3.184,-3.1844,-3.1847,-3.1849,0,-3.1278,-3.1265,-3.1327,-3.1386,-3.1436,-3.1481,-3.1521,-3.156,-3.153,-3.1584,-3.1662,-3.1705,-3.1789,-3.1862,-3.192,-3.1935,-3.1889,-3.1882,-3.191,-3.1925,-3.193,-3.1931,-3.1573,-3.1876,-3.1873,-3.1871,-3.187,-3.1869,-3.1483,-3.1552,-3.1581,-3.1651,-3.1677,-3.1715,-3.178,-3.1781,-3.1845,-3.1911,-3.1887,-3.1976,-3.2007,-3.208,-3.2103,-3.2172,-3.2128,-3.2168,-3.2178,-3.2189,-3.2203,-3.1916,-3.2182,-3.2181,-3.2181,-3.218,-3.2179,0,-3.1759,-3.1773,-3.1838,-3.1895,-3.195,-3.1899,-3.1939,-3.199,-3.2068,-3.21,-3.2155,-3.2244,-3.2313,-3.2319,-3.2384,-3.2438,-3.2419,-3.2457,-3.2454,-3.2459,-3.2238,-3.2208,-3.2472,-3.2472,-3.2472,-3.2472,-3.2472,-3.2472,-3.191,-3.2026,-3.2017,-3.2145,-3.2158,-3.2244,-3.2272,-3.2307,-3.2332,-3.2434,-3.2491,-3.2493,-3.2515,-3.2581,-3.2642,-3.2641,-3.2669,-3.2717,-3.2709,-3.2503,-3.2474,-3.2446,-3.2419,-3.2722,-3.2723,-3.2924,-3.2926,-3.2928]},{"header":{"parameterUnit":"m.s-1","parameterCategory":1,"la1":30.2991,"la2":30.254,"lo1":-89.0895,"lo2":-89.0444,"dy":0.0017,"dx":0.0017,"nx":28,"ny":28,"refTime":"2025-09-07T21:00:00:Z","depth":0,"parameterNumber":3,"parameterNumberName":"V-component_of_WINDS"},"data":[0,0,0,0,0,0,0,0,0,0,0,0,0,0,0,0,0,0,0,0,0,0,0,0,0,0,0,0,0,0,0,0,0,0,0,0,0,0,0,0,0,0,0,0,0,0,0,0,0,0,0,0,0,0,0,0,0,0,-5.7492,-5.7492,0,-5.7555,-5.7556,-5.7556,-5.7475,-5.7472,-5.7469,-5.7466,-5.7526,-5.753,-5.7535,0,0,0,0,0,0,0,0,0,0,0,0,0,-5.7295,-5.7299,-5.7492,-5.7492,-5.7493,-5.7555,-5.7556,-5.7556,-5.7475,-5.7472,-5.7468,-5.7465,-5.7525,-5.753,-5.7535,0,0,0,0,0,0,0,0,0,0,0,0,0,-5.7371,-5.73,-5.7491,-5.746,-5.7458,-5.7555,-5.7556,-5.7557,-5.7476,-5.7472,-5.7467,-5.7463,-5.7523,-5.7529,-5.7536,-5.7664,0,0,-5.7556,-5.7558,0,0,0,0,0,0,0,0,-5.7367,-5.7379,-5.7464,-5.7463,-5.746,-5.7503,-5.7508,-5.7593,-5.7477,-5.7469,-5.7466,-5.7461,-5.7522,-5.7528,-5.7549,-5.7667,-5.767,-5.7556,-5.756,-5.7563,-5.7565,0,0,0,0,0,0,0,-5.7362,-5.7375,-5.7516,-5.7465,-5.7463,-5.7441,-5.7447,-5.7524,-5.7519,-5.7469,-5.7464,-5.7473,-5.752,-5.7543,-5.755,-5.7671,-5.7556,-5.7562,-5.7566,-5.7568,-5.7894,-5.7899,0,0,0,0,0,0,-5.7361,-5.7372,-5.7514,-5.7518,-5.7402,-5.7448,-5.7455,-5.7493,-5.7518,-5.7518,-5.7476,-5.7469,-5.7534,-5.7543,-5.7552,-5.7702,-5.7563,-5.7569,-5.7573,-5.789,-5.7895,-5.7901,0,0,0,0,0,0,-5.7357,-5.7375,-5.7512,-5.7443,-5.7459,-5.7456,-5.75,-5.7497,-5.752,-5.7523,-5.7522,-5.7502,-5.7531,-5.7543,-5.7637,-5.7703,-5.7572,-5.7578,-5.7884,-5.7891,-5.7898,-5.8006,0,0,0,0,0,0,-5.7352,-5.7374,-5.7424,-5.7445,-5.7463,-5.7598,-5.7504,-5.7501,-5.7532,-5.7523,-5.7547,-5.7546,-5.7529,-5.7627,-5.7643,-5.771,-5.7583,-5.7878,-5.7887,-5.7896,-5.7996,-5.8016,-5.8032,0,0,0,0,0,-5.7345,-5.7451,-5.7427,-5.7445,-5.7527,-5.7602,-5.7612,-5.7591,-5.7538,-5.7588,-5.7589,-5.7545,-5.7694,-5.7638,-5.7655,-5.7725,-5.7874,-5.7885,-5.7895,-5.7988,-5.8012,-5.8032,0,0,0,0,0,0,-5.7437,-5.7454,-5.7427,-5.7544,-5.7572,-5.7588,-5.765,-5.7617,-5.766,-5.7649,-5.7619,-5.7625,-5.7725,-5.7734,-5.7672,-5.7849,-5.7775,-5.7789,-5.784,-5.7862,-5.788,-5.7875,-5.7588,0,0,0,0,0,-5.7471,-5.7532,-5.7543,-5.7645,-5.7661,-5.7653,-5.7685,-5.7666,-5.7694,-5.7705,-5.7714,-5.7741,-5.7793,-5.7828,-5.7877,-5.7997,-5.8,-5.8053,-5.8071,-5.8086,-5.8099,-5.8161,-5.8184,-5.7936,-5.7936,-5.7935,0,0,-5.7541,-5.7558,-5.7598,-5.7664,-5.7683,-5.7746,-5.7664,-5.7734,-5.7779,-5.7715,-5.7805,-5.7812,-5.784,-5.7947,-5.7995,-5.7958,-5.8168,-5.81,-5.8112,-5.8116,-5.8174,-5.8198,-5.8219,-5.7943,-5.7942,-5.7941,0,0,-5.7701,-5.7721,-5.7807,-5.7829,-5.786,-5.7854,-5.7875,-5.7896,-5.7899,-5.7989,-5.7941,-5.7994,-5.8086,-5.8107,-5.813,-5.8297,-5.8257,-5.8313,-5.8407,-5.8468,-5.8488,-5.8505,-5.8563,-5.8584,-5.8326,-5.8326,-5.8326,0,-5.7784,-5.7878,-5.7855,-5.7928,-5.7957,-5.7904,-5.7989,-5.8011,-5.8056,-5.8076,-5.8035,-5.8147,-5.8163,-5.8273,-5.8314,-5.8335,-5.8356,-5.831,-5.8487,-5.8504,-5.852,-5.8574,-5.8597,-5.8333,-5.8332,-5.8331,-5.8331,0,-5.7978,-5.8043,-5.8109,-5.8155,-5.8191,-5.8271,-5.8258,-5.8297,-5.8274,-5.8272,-5.8363,-5.8379,-5.8429,-5.8454,-5.8433,-5.8562,-5.8537,-5.8492,-5.8417,-5.855,-5.8601,-5.8622,-5.8342,-5.834,-5.8338,-5.8336,0,0,-5.8197,-5.8229,-5.8254,-5.8273,-5.8304,-5.8353,-5.8428,-5.8479,-5.8512,-5.8545,-5.8606,-5.8684,-5.8642,-5.8668,-5.8648,-5.8702,-5.8831,-5.865,-5.865,-5.8681,-5.8971,-5.9005,-5.9029,-5.8806,-5.8809,-5.8813,-5.8969,0,-5.8356,-5.8489,-5.847,-5.8596,-5.8655,-5.8605,-5.867,-5.8695,-5.8695,-5.8743,-5.8742,-5.8797,-5.8738,-5.8753,-5.8804,-5.8805,-5.8889,-5.8793,-5.886,-5.8863,-5.8854,-5.9056,-5.9092,-5.9238,-5.8988,-5.8992,-5.8994,0,-5.8559,-5.86,-5.8734,-5.8753,-5.8777,-5.8837,-5.888,-5.8928,-5.8954,-5.895,-5.8979,-5.8949,-5.9022,-5.8946,-5.9045,-5.8981,-5.9007,-5.9011,-5.9016,-5.902,-5.8936,-5.9065,-5.9285,-5.9306,-5.9026,-5.9023,-5.9021,0,-5.8704,-5.8793,-5.8883,-5.8902,-5.8928,-5.897,-5.8982,-5.9004,-5.9035,-5.9072,-5.9092,-5.9137,-5.9161,-5.9196,-5.9178,-5.9125,-5.928,-5.9203,-5.9277,-5.9277,-5.9311,-5.9309,-5.9537,-5.933,-5.933,-5.933,-5.9329,0,-5.8883,-5.8966,-5.8948,-5.9004,-5.9095,-5.9071,-5.9161,-5.9166,-5.9186,-5.924,-5.9199,-5.925,-5.9224,-5.9273,-5.926,-5.9343,-5.9354,-5.9351,-5.9347,-5.9355,-5.9355,-5.937,-5.9359,-5.9335,-5.9334,-5.9333,-5.9332,0,-5.906,-5.9052,-5.9147,-5.9164,-5.9169,-5.9235,-5.9248,-5.9299,-5.9296,-5.9365,-5.9379,-5.9373,-5.9429,-5.9415,-5.9475,-5.9465,-5.957,-5.9553,-5.9561,-5.9557,-5.9631,-5.9623,-5.9876,-5.9906,-5.9681,-5.9684,-5.9685,0,-5.9174,-5.9236,-5.926,-5.9294,-5.931,-5.9365,-5.9397,-5.9375,-5.9409,-5.9442,-5.9489,-5.9541,-5.9581,-5.9671,-5.9671,-5.9716,-5.9699,-5.9784,-5.9705,-5.9711,-5.9698,-5.9694,-5.9699,-5.9799,-5.9802,-5.9804,-5.9806,0,-5.9376,-5.9369,-5.9417,-5.9463,-5.9502,-5.9537,-5.9568,-5.9598,-5.9578,-5.9618,-5.9675,-5.9706,-5.9768,-5.9819,-5.986,-5.987,-5.9835,-5.9831,-5.985,-5.9858,-5.986,-5.9858,-5.9603,-5.9825,-5.9823,-5.9822,-5.9821,-5.982,-5.9524,-5.9577,-5.9601,-5.9655,-5.9677,-5.9706,-5.9755,-5.9757,-5.9805,-5.9854,-5.9837,-5.9902,-5.9924,-5.9976,-5.9991,-6.004,-6.0007,-6.0035,-6.0042,-6.0049,-6.0057,-5.9854,-6.0047,-6.0047,-6.0046,-6.0046,-6.0045,0,-5.9723,-5.9736,-5.9786,-5.9831,-5.9873,-5.9838,-5.9869,-5.9906,-5.9964,-5.9988,-6.0029,-6.0093,-6.0142,-6.0146,-6.0191,-6.0229,-6.0214,-6.0242,-6.0238,-6.0241,-6.0085,-6.0063,-6.0254,-6.0254,-6.0254,-6.0253,-6.0253,-6.0253,-5.9831,-5.9918,-5.9914,-6.001,-6.0022,-6.0085,-6.0106,-6.0133,-6.0152,-6.0226,-6.0267,-6.027,-6.0285,-6.0331,-6.0374,-6.0373,-6.0391,-6.0426,-6.0419,-6.0273,-6.0252,-6.0232,-6.0211,-6.043,-6.043,-6.057,-6.0572,-6.0573]}]]